Location: Chillicothe
(39.7950°N, 93.5520°W)
Time: 10:40:45
(UTC-05:00)

Tiros 1 - Visible Passes

Search period start: 19 October 2019 00:00
Search period end: 29 October 2019 00:00
Orbit: 630 x 664 km, 48.4° (Epoch: 18 October)

Date Brightness Start Highest point End Pass type
(mag) Time Alt. Az. Time Alt. Az. Time Alt. Az.
19 Oct 9.3 04:34:34 23° NE 04:34:34 23° NE 04:36:36 10° NE visible
19 Oct 8.6 06:12:14 17° NW 06:15:06 29° N 06:19:18 10° ENE visible
20 Oct 8.8 04:59:34 28° NNE 04:59:34 28° NNE 05:02:47 10° NE visible
20 Oct 8.4 06:37:15 10° NW 06:41:37 33° NNE 06:45:59 10° ENE visible
21 Oct 8.5 05:24:34 28° N 05:25:01 29° N 05:29:13 10° ENE visible
22 Oct 10.0 04:11:55 14° NE 04:11:55 14° NE 04:12:43 10° NE visible
22 Oct 8.5 05:49:35 24° NNW 05:51:33 32° N 05:55:53 10° ENE visible
23 Oct 9.4 04:36:57 21° NE 04:36:57 21° NE 04:39:08 10° ENE visible
23 Oct 8.0 06:14:38 17° NW 06:17:59 44° NNE 06:22:35 10° E visible
24 Oct 8.7 05:02:02 31° NNE 05:02:02 31° NNE 05:05:46 10° ENE visible
24 Oct 7.4 06:39:43 12° NW 06:44:14 73° NNE 06:49:03 10° ESE visible
25 Oct 8.0 05:27:11 39° N 05:27:54 42° NNE 05:32:29 10° E visible
25 Oct 7.4 07:05:33 10° WNW 07:10:17 58° SW 07:15:00 10° SE visible
26 Oct 10.0 04:14:42 15° ENE 04:14:42 15° ENE 04:15:40 10° ENE visible
26 Oct 7.4 05:52:24 37° NW 05:54:11 69° NNE 05:58:59 10° ESE visible
27 Oct 9.2 04:39:59 26° ENE 04:39:59 26° ENE 04:42:23 10° E visible
27 Oct 7.3 06:17:40 26° WNW 06:20:16 63° SW 06:25:01 10° SE visible
28 Oct 8.1 05:05:21 47° E 05:05:21 47° E 05:08:55 10° ESE visible
28 Oct 8.2 06:43:03 15° W 06:46:07 29° SW 06:50:15 10° SSE visible
